Location: Recife
(8.0585°S, 34.8848°W)
Time: 18:29:31
(UTC-03:00)

Explorer 11/Cluster Stage 4 - Pass Details

Date: 18 April 2026
Orbit: 463 x 1174 km, 28.8° (Epoch: 19 May)

Event Time Altitude Azimuth Distance (km) Brightness Sun altitude
Rises 18:24:47 0° 297° (WNW) 3,755 11.5 -17.6°
Reaches altitude 10° 18:27:43 10° 296° (WNW) 2,702 10.4 -18.3°
Maximum altitude 18:34:14 80° 211° (SSW) 848 6.7 -19.9°
Enters shadow 18:36:30 37° 128° (SE) 1,195 7.0 -20.5°
